Date,TemperatureHighF,TemperatureAvgF,TemperatureLowF,DewpointHighF,DewpointAvgF,DewpointLowF,HumidityHigh,HumidityAvg,HumidityLow,PressureMaxIn,PressureMinIn,WindSpeedMaxMPH,WindSpeedAvgMPH,GustSpeedMaxMPH,PrecipitationSumIn
2013-1-1,24,9,-3,-100,-100,-100,0,0,100,0.00,40.00,6,2,9,0.00
2013-1-2,33,17,1,-100,-100,-100,0,0,100,0.00,40.00,6,2,12,0.00
2013-1-3,27,19,9,-100,-100,-100,0,0,100,0.00,40.00,6,4,13,0.00
2013-1-4,38,23,9,-100,-100,-100,0,0,100,0.00,40.00,8,3,15,0.00
2013-1-5,39,27,15,-100,-100,-100,0,0,100,0.00,40.00,8,3,15,0.11
2013-1-6,31,19,12,-100,-100,-100,0,0,100,0.00,40.00,6,3,13,0.00
2013-1-7,48,30,13,-100,-100,-100,0,0,100,0.00,40.00,10,4,21,0.06
2013-1-8,47,34,22,-100,-100,-100,0,0,100,0.00,40.00,9,4,15,0.06
2013-1-9,45,34,26,-100,-100,-100,0,0,100,0.00,40.00,7,3,15,0.00
2013-1-10,42,32,25,-100,-100,-100,0,0,100,0.00,40.00,6,3,15,0.09
2013-1-11,52,43,36,-100,-100,-100,0,0,100,0.00,40.00,10,3,20,0.02
2013-1-12,53,30,18,-100,-100,-100,0,0,100,0.00,40.00,10,6,20,0.00
2013-1-13,19,13,9,-100,-100,-100,0,0,100,0.00,40.00,9,4,15,0.00
2013-1-14,35,17,4,-100,-100,-100,0,0,100,0.00,40.00,4,1,9,0.00
2013-1-15,38,22,11,-100,-100,-100,0,0,100,0.00,40.00,5,2,11,0.00
2013-1-16,46,30,18,-100,-100,-100,0,0,100,0.00,40.00,9,5,16,0.00
2013-1-17,37,24,15,-100,-100,-100,0,0,100,0.00,40.00,9,3,15,0.00
2013-1-18,56,39,22,-100,-100,-100,0,0,100,0.00,40.00,13,6,23,0.00
2013-1-19,55,39,15,-100,-100,-100,0,0,100,0.00,40.00,14,6,25,0.00
2013-1-20,17,11,7,-100,-100,-100,0,0,100,0.00,40.00,10,4,22,0.00
2013-1-21,14,5,-2,-100,-100,-100,0,0,100,0.00,40.00,8,5,17,0.00
2013-1-22,16,7,-4,-100,-100,-100,0,0,100,0.00,40.00,5,2,11,0.00
2013-1-23,32,17,5,-100,-100,-100,0,0,100,0.00,40.00,12,5,25,0.00
2013-1-24,21,11,1,-100,-100,-100,0,0,100,0.00,40.00,7,4,13,0.00
2013-1-25,37,24,9,-100,-100,-100,0,0,100,0.00,40.00,9,5,18,0.00
2013-1-26,35,19,2,-100,-100,-100,0,0,100,0.00,40.00,8,3,13,0.00
2013-1-27,37,31,27,-100,-100,-100,0,0,100,0.00,40.00,8,5,17,0.11
2013-1-28,43,37,33,-100,-100,-100,0,0,100,0.00,40.00,5,2,11,0.04
2013-1-29,57,43,32,-100,-100,-100,0,0,100,0.00,40.00,10,3,17,0.26
2013-1-30,33,24,12,-100,-100,-100,0,0,100,0.00,40.00,12,7,23,0.01
2013-1-31,14,7,-3,-100,-100,-100,0,0,100,0.00,40.00,8,5,18,0.00
2013-2-1,16,4,-9,-100,-100,-100,0,0,100,0.00,40.00,6,3,12,0.00
2013-2-2,24,18,11,-100,-100,-100,0,0,100,0.00,40.00,9,3,17,0.00
2013-2-3,29,20,14,-100,-100,-100,0,0,100,0.00,40.00,9,3,20,0.00
2013-2-4,30,21,11,-100,-100,-100,0,0,100,0.00,40.00,11,3,15,0.00
2013-2-5,42,27,14,-100,-100,-100,0,0,100,0.00,40.00,8,4,16,0.01
2013-2-6,44,29,13,-100,-100,-100,0,0,100,0.00,40.00,6,2,14,0.00
2013-2-7,37,34,29,-100,-100,-100,0,0,100,0.00,40.00,9,3,16,0.21
2013-2-8,32,28,27,-100,-100,-100,0,0,100,0.00,40.00,9,3,16,0.00
2013-2-9,33,28,26,-100,-100,-100,0,0,100,0.00,40.00,9,5,17,0.00
2013-2-10,47,37,29,-100,-100,-100,0,0,100,0.00,40.00,13,6,31,0.30
2013-2-11,34,29,25,-100,-100,-100,0,0,100,0.00,40.00,12,8,25,0.00
2013-2-12,44,31,23,-100,-100,-100,0,0,100,0.00,40.00,6,2,15,0.00
2013-2-13,50,36,24,-100,-100,-100,0,0,100,0.00,40.00,5,2,11,0.00
2013-2-14,44,35,23,-100,-100,-100,0,0,100,0.00,40.00,10,5,21,0.00
2013-2-15,32,22,14,-100,-100,-100,0,0,100,0.00,40.00,10,5,17,0.00
2013-2-16,33,17,9,-100,-100,-100,0,0,100,0.00,40.00,7,2,12,0.00
2013-2-17,40,25,11,-100,-100,-100,0,0,100,0.00,40.00,9,5,19,0.00
2013-2-18,53,33,14,-100,-100,-100,0,0,100,0.00,40.00,11,6,21,0.01
2013-2-19,23,11,3,-100,-100,-100,0,0,100,0.00,40.00,10,7,20,0.00
2013-2-20,32,17,1,-100,-100,-100,0,0,100,0.00,40.00,5,2,12,0.00
2013-2-21,26,20,9,-100,-100,-100,0,0,100,0.00,40.00,5,3,12,0.00
2013-2-22,37,27,22,-100,-100,-100,0,0,100,0.00,40.00,5,2,14,0.00
2013-2-23,37,24,11,-100,-100,-100,0,0,100,0.00,40.00,5,2,12,0.00
2013-2-24,44,22,7,-100,-100,-100,0,0,100,0.00,40.00,4,0,9,0.00
2013-2-25,47,31,19,-100,-100,-100,0,0,100,0.00,40.00,5,0,10,0.07
2013-2-26,37,32,29,-100,-100,-100,0,0,100,0.00,40.00,14,8,21,0.00
2013-2-27,35,31,28,-100,-100,-100,0,0,100,0.00,40.00,8,6,15,0.00
2013-2-28,39,31,27,-100,-100,-100,0,0,100,0.00,40.00,8,4,14,0.04
2013-3-1,37,27,18,-100,-100,-100,0,0,100,0.00,40.00,8,4,13,0.00
2013-3-2,34,19,6,-100,-100,-100,0,0,100,0.00,40.00,5,2,9,0.00
2013-3-3,41,22,3,-100,-100,-100,0,0,100,0.00,40.00,5,2,10,0.00
2013-3-4,37,28,22,-100,-100,-100,0,0,100,0.00,40.00,8,4,18,0.00
2013-3-5,38,30,25,-100,-100,-100,0,0,100,0.00,40.00,8,3,15,0.00
2013-3-6,33,23,10,-100,-100,-100,0,0,100,0.00,40.00,8,3,16,0.00
2013-3-7,41,21,1,-100,-100,-100,0,0,100,0.00,40.00,3,1,9,0.00
2013-3-8,48,31,17,-100,-100,-100,0,0,100,0.00,40.00,7,3,15,0.13
2013-3-9,38,36,33,-100,-100,-100,0,0,100,0.00,40.00,8,5,18,0.80
2013-3-10,40,37,34,-100,-100,-100,0,0,100,0.00,40.00,10,2,18,0.51
2013-3-11,34,31,27,-100,-100,-100,0,0,100,0.00,40.00,8,4,15,0.01
2013-3-12,39,27,21,-100,-100,-100,0,0,100,0.00,40.00,10,4,18,0.00
2013-3-13,38,26,17,-100,-100,-100,0,0,100,0.00,40.00,8,4,17,0.00
2013-3-14,55,34,18,-100,-100,-100,0,0,100,0.00,40.00,9,2,15,0.00
2013-3-15,51,36,26,-100,-100,-100,0,0,100,0.00,40.00,7,1,11,0.00
2013-3-16,35,32,26,-100,-100,-100,0,0,100,0.00,40.00,11,4,18,0.00
2013-3-17,39,30,22,-100,-100,-100,0,0,100,0.00,40.00,7,4,15,0.00
2013-3-18,35,28,17,-100,-100,-100,0,0,100,0.00,40.00,9,3,23,0.00
2013-3-19,36,22,11,-100,-100,-100,0,0,100,0.00,40.00,9,5,17,0.00
2013-3-20,28,18,9,-100,-100,-100,0,0,100,0.00,40.00,11,7,21,0.00
2013-3-21,37,22,6,-100,-100,-100,0,0,100,0.00,40.00,5,2,10,0.00
2013-3-22,48,29,11,-100,-100,-100,0,0,100,0.00,40.00,3,1,8,0.00
2013-3-23,49,34,21,-100,-100,-100,0,0,100,0.00,40.00,6,1,10,0.00
2013-3-24,34,30,27,-100,-100,-100,0,0,100,0.00,40.00,9,5,15,0.00
2013-3-25,38,32,27,-100,-100,-100,0,0,100,0.00,40.00,11,7,18,0.02
2013-3-26,46,32,23,-100,-100,-100,0,0,100,0.00,40.00,7,3,14,0.00
2013-3-27,54,37,24,-100,-100,-100,0,0,100,0.00,40.00,4,0,8,0.00
2013-3-28,59,40,22,-100,-100,-100,0,0,100,0.00,40.00,2,0,7,0.00
2013-3-29,65,45,28,-100,-100,-100,0,0,100,0.00,40.00,2,0,7,0.00
2013-3-30,53,44,37,-100,-100,-100,0,0,100,0.00,40.00,7,2,16,0.01
2013-3-31,53,40,31,-100,-100,-100,0,0,100,0.00,40.00,13,4,21,0.01
2013-4-1,43,31,23,-100,-100,-100,0,0,100,0.00,40.00,10,5,19,0.00
2013-4-2,47,32,18,-100,-100,-100,0,0,100,0.00,40.00,9,3,20,0.00
2013-4-3,54,35,18,-100,-100,-100,0,0,100,0.00,40.00,2,0,8,0.00
2013-4-4,66,44,25,-100,-100,-100,0,0,100,0.00,40.00,6,2,14,0.00
2013-4-5,56,43,27,-100,-100,-100,0,0,100,0.00,40.00,3,0,12,0.00
2013-4-6,66,51,36,-100,-100,-100,0,0,100,0.00,40.00,11,2,23,0.04
2013-4-7,70,50,33,-100,-100,-100,0,0,100,0.00,40.00,7,2,15,0.00
2013-4-8,81,60,44,-100,-100,-100,0,0,100,0.00,40.00,5,1,13,0.44
2013-4-9,57,48,41,-100,-100,-100,0,0,100,0.00,40.00,7,2,17,0.98
2013-4-10,41,37,35,-100,-100,-100,0,0,100,0.00,40.00,13,3,20,1.03
2013-4-11,46,40,35,-100,-100,-100,0,0,100,0.00,40.00,8,2,16,0.21
2013-4-12,41,37,34,-100,-100,-100,0,0,100,0.00,40.00,7,4,17,0.00
2013-4-13,54,40,31,-100,-100,-100,0,0,100,0.00,40.00,7,3,15,0.00
2013-4-14,76,52,37,-100,-100,-100,0,0,100,0.00,40.00,7,1,19,0.46
2013-4-15,58,46,38,-100,-100,-100,0,0,100,0.00,40.00,7,2,15,0.03
2013-4-16,56,43,30,-100,-100,-100,0,0,100,0.00,40.00,7,3,13,0.00
2013-4-17,46,42,38,-100,-100,-100,0,0,100,0.00,40.00,4,0,12,1.11
2013-5-4,73,62,51,-100,-100,-100,0,0,100,0.00,40.00,5,1,11,0.16
2013-5-5,80,64,50,-100,-100,-100,0,0,100,0.00,40.00,5,1,9,0.00
2013-5-6,86,66,48,-100,-100,-100,0,0,100,0.00,40.00,2,0,10,0.00
2013-5-7,89,66,47,-100,-100,-100,0,0,100,0.00,40.00,0,0,8,0.00
2013-5-8,83,65,49,-100,-100,-100,0,0,100,0.00,40.00,5,0,12,0.02
2013-5-9,71,62,57,-100,-100,-100,0,0,100,0.00,40.00,3,0,9,0.13
2013-5-10,66,54,48,-100,-100,-100,0,0,100,0.00,40.00,10,4,17,0.01
2013-5-11,60,51,38,-100,-100,-100,0,0,100,0.00,40.00,15,7,25,0.00
2013-5-12,64,48,32,-100,-100,-100,0,0,100,0.00,40.00,8,3,15,0.00
2013-5-13,74,55,30,-100,-100,-100,0,0,100,0.00,40.00,3,1,13,0.00
2013-5-14,99,77,55,-100,-100,-100,0,0,100,0.00,40.00,9,4,20,0.00
2013-5-15,89,74,62,-100,-100,-100,0,0,100,0.00,40.00,8,2,15,0.00
2013-5-16,90,66,53,-100,-100,-100,0,0,100,0.00,40.00,3,0,11,0.00
2013-5-17,86,71,61,-100,-100,-100,0,0,100,0.00,40.00,5,1,13,0.00
2013-5-18,88,72,58,-100,-100,-100,0,0,100,0.00,40.00,4,1,13,0.00
2013-5-19,87,73,64,-100,-100,-100,0,0,100,0.00,40.00,12,1,29,0.26
2013-5-20,85,72,60,-100,-100,-100,0,0,100,0.00,40.00,9,3,18,0.03
2013-5-21,78,67,57,-100,-100,-100,0,0,100,0.00,40.00,6,2,16,0.00
2013-5-22,74,60,55,-100,-100,-100,0,0,100,0.00,40.00,5,1,13,0.05
2013-5-23,75,60,50,-100,-100,-100,0,0,100,0.00,40.00,10,4,16,0.01
2013-5-24,75,58,37,-100,-100,-100,0,0,100,0.00,40.00,3,0,12,0.00
2013-5-25,57,50,46,-100,-100,-100,0,0,100,0.00,40.00,1,0,8,0.66
2013-5-26,61,51,47,-100,-100,-100,0,0,100,0.00,40.00,3,0,54,0.70
2013-5-27,74,61,55,-100,-100,-100,0,0,100,0.00,40.00,1,0,7,0.05
2013-5-28,83,67,60,-100,-100,-100,0,0,100,0.00,40.00,4,1,10,0.36
2013-5-29,87,72,61,-100,-100,-100,0,0,100,0.00,40.00,6,1,14,0.00
2013-5-30,83,71,61,-100,-100,-100,0,0,100,0.00,40.00,11,1,22,0.26
2013-5-31,82,70,60,-100,-100,-100,0,0,100,0.00,40.00,7,2,23,0.00
2013-6-1,77,68,60,-100,-100,-100,0,0,100,0.00,40.00,6,3,13,0.00
2013-6-2,72,59,47,-100,-100,-100,0,0,100,0.00,40.00,8,4,16,0.00
2013-6-3,80,62,42,-100,-100,-100,0,0,100,0.00,40.00,1,0,8,0.00
2013-6-4,67,59,52,-100,-100,-100,0,0,100,0.00,40.00,3,0,9,0.04
2013-6-5,72,61,55,-100,-100,-100,0,0,100,0.00,40.00,1,0,5,0.34
2013-6-6,74,62,55,-100,-100,-100,0,0,100,0.00,40.00,5,1,11,0.00
2013-6-7,78,62,53,-100,-100,-100,0,0,100,0.00,40.00,3,1,8,0.00
2013-6-8,81,66,52,-100,-100,-100,0,0,100,0.00,40.00,1,0,10,0.00
2013-6-9,72,65,59,-100,-100,-100,0,0,100,0.00,40.00,1,0,7,0.04
2013-6-10,86,68,55,-100,-100,-100,0,0,100,0.00,40.00,2,0,8,0.00
2013-6-11,96,74,57,-100,-100,-100,0,0,100,0.00,40.00,1,0,8,0.00
2013-6-12,94,78,67,-100,-100,-100,0,0,100,0.00,40.00,7,2,15,0.04
2013-6-13,88,72,61,-100,-100,-100,0,0,100,0.00,40.00,8,3,14,0.00
2013-6-14,83,69,56,-100,-100,-100,0,0,100,0.00,40.00,2,0,10,0.00
2013-6-15,83,73,64,-100,-100,-100,0,0,100,0.00,40.00,8,1,18,0.06
2013-6-16,92,72,65,-100,-100,-100,0,0,100,0.00,40.00,4,1,11,0.00
2013-6-17,95,68,57,-100,-100,-100,0,0,100,0.00,40.00,3,0,10,0.00
2013-7-20,94,81,69,-100,-100,-100,0,0,100,0.00,40.00,3,0,8,0.00
2013-7-21,89,73,64,-100,-100,-100,0,0,100,0.00,40.00,5,0,10,0.00
2013-7-22,95,73,60,-100,-100,-100,0,0,100,0.00,40.00,12,1,21,0.18
2013-7-23,83,71,61,-100,-100,-100,0,0,100,0.00,40.00,7,3,14,0.00
2013-7-24,83,64,53,-100,-100,-100,0,0,100,0.00,40.00,2,0,8,0.00
2013-7-25,88,70,57,-100,-100,-100,0,0,100,0.00,40.00,5,1,12,0.36
2013-7-26,83,69,60,-100,-100,-100,0,0,100,0.00,40.00,8,2,20,0.61
2013-7-27,70,58,51,-100,-100,-100,0,0,100,0.00,40.00,7,3,14,0.00
2013-7-28,75,59,52,-100,-100,-100,0,0,100,0.00,40.00,4,1,11,0.00
2013-7-29,82,62,48,-100,-100,-100,0,0,100,0.00,40.00,1,0,8,0.00
2013-7-30,69,65,62,-100,-100,-100,0,0,100,0.00,40.00,2,0,5,0.00
2013-7-31,86,69,64,-100,-100,-100,0,0,100,0.00,40.00,4,1,10,0.00
2013-8-1,85,68,59,-100,-100,-100,0,0,100,0.00,40.00,3,0,8,0.00
2013-8-2,89,72,63,-100,-100,-100,0,0,100,0.00,40.00,4,1,11,0.03
2013-8-3,84,69,55,-100,-100,-100,0,0,100,0.00,40.00,5,1,10,0.00
2013-8-4,85,67,52,-100,-100,-100,0,0,100,0.00,40.00,3,0,6,0.00
2013-8-5,82,68,59,-100,-100,-100,0,0,100,0.00,40.00,8,1,16,0.49
2013-8-6,92,76,66,-100,-100,-100,0,0,100,0.00,40.00,8,1,20,0.03
2013-8-7,85,74,64,-100,-100,-100,0,0,100,0.00,40.00,8,2,15,0.00
2013-8-8,87,67,56,-100,-100,-100,0,0,100,0.00,40.00,2,0,6,0.00
2013-8-9,85,71,61,-100,-100,-100,0,0,100,0.00,40.00,6,1,32,0.00
2013-8-10,85,68,54,-100,-100,-100,0,0,100,0.00,40.00,5,0,11,0.00
2013-8-11,88,73,63,-100,-100,-100,0,0,100,0.00,40.00,3,0,12,0.00
2013-8-21,95,79,68,-100,-100,-100,0,0,100,0.00,40.00,5,2,17,0.00
2013-8-22,85,74,65,-100,-100,-100,0,0,100,0.00,40.00,6,1,10,0.02
2013-8-23,90,70,59,-100,-100,-100,0,0,100,0.00,40.00,1,0,7,0.01
2013-8-24,93,74,63,-100,-100,-100,0,0,100,0.00,40.00,3,1,9,0.00
2013-8-25,97,82,69,-100,-100,-100,0,0,100,0.00,40.00,6,2,14,0.00
2013-8-26,101,83,70,-100,-100,-100,0,0,100,0.00,40.00,4,1,10,0.00
2013-8-27,99,82,74,-100,-100,-100,0,0,100,0.00,40.00,6,3,13,0.00
2013-9-24,81,59,46,-100,-100,-100,0,0,100,0.00,40.00,2,0,5,0.01
2013-9-25,78,56,48,-100,-100,-100,0,0,100,0.00,40.00,2,0,6,0.00
2013-9-26,88,67,52,-100,-100,-100,0,0,100,0.00,40.00,3,1,12,0.00
2013-9-27,87,70,54,-100,-100,-100,0,0,100,0.00,40.00,5,2,13,0.00
2013-9-28,75,61,50,-100,-100,-100,0,0,100,0.00,40.00,6,2,14,0.01
2013-9-29,78,57,41,-100,-100,-100,0,0,100,0.00,40.00,3,0,8,0.00
2013-9-30,81,62,44,-100,-100,-100,0,0,100,0.00,40.00,5,1,14,0.00
2013-10-2,88,64,52,-100,-100,-100,0,0,100,0.00,40.00,1,0,5,0.03
2013-10-3,85,71,61,-100,-100,-100,0,0,100,0.00,40.00,5,1,10,0.00
2013-10-4,75,67,61,-100,-100,-100,0,0,100,0.00,40.00,14,0,21,0.07
2013-10-5,71,61,43,-100,-100,-100,0,0,100,0.00,40.00,5,1,10,0.02
2013-10-6,54,45,38,-100,-100,-100,0,0,100,0.00,40.00,4,1,9,0.01
2013-10-7,79,53,42,-100,-100,-100,0,0,100,0.00,40.00,6,1,12,0.01
2013-10-8,83,61,43,-100,-100,-100,0,0,100,0.00,40.00,3,0,14,0.00
2013-10-9,80,60,45,-100,-100,-100,0,0,100,0.00,40.00,2,0,9,0.01
2013-10-10,82,59,41,-100,-100,-100,0,0,100,0.00,40.00,3,0,10,0.01
2013-10-18,54,46,42,-100,-100,-100,0,0,100,0.00,40.00,6,2,14,0.00
2013-10-19,57,42,37,-100,-100,-100,0,0,100,0.00,40.00,5,1,16,0.00
2013-10-20,61,46,33,-100,-100,-100,0,0,100,0.00,40.00,4,1,11,0.00
2013-10-21,48,40,30,-100,-100,-100,0,0,100,0.00,40.00,8,2,17,0.00
2013-10-22,37,33,24,-100,-100,-100,0,0,100,0.00,40.00,4,0,8,0.07
2013-10-23,47,35,27,-100,-100,-100,0,0,100,0.00,40.00,4,1,11,0.04
2013-10-24,42,35,28,-100,-100,-100,0,0,100,0.00,40.00,8,2,14,0.00
2013-10-25,58,47,26,-100,-100,-100,0,0,100,0.00,40.00,9,5,22,0.00
2013-10-26,55,44,33,-100,-100,-100,0,0,100,0.00,40.00,9,4,18,0.00
2013-10-27,64,42,24,-100,-100,-100,0,0,100,0.00,40.00,3,1,13,0.00
2013-10-28,61,40,34,-100,-100,-100,0,0,100,0.00,40.00,5,2,12,0.00
2013-10-29,60,46,35,-100,-100,-100,0,0,100,0.00,40.00,3,0,7,0.00
2013-10-30,58,54,50,-100,-100,-100,0,0,100,0.00,40.00,2,0,9,0.12